This is the latest recevied weather packets stored in our database for station/object LU4EGV-13. If no packets are shown the sender has not sent any weather packets the latest 10 day(s).
| Time | Temp. | Humidity | Pressure | Rain* | Wind** | Luminosity | Snow |
|---|---|---|---|---|---|---|---|
| 1777944372 | 13.89° C | 79% | 1009.9 hPa | 0 mm | - | - | - |
| 1777943769 | 13.89° C | 78% | 1009.5 hPa | 0 mm | - | - | - |
| 1777943164 | 13.89° C | 77% | 1009.4 hPa | 0 mm | - | - | - |
| 1777942553 | 14.44° C | 76% | 1009.5 hPa | 0 mm | - | - | - |
| 1777941947 | 14.44° C | 76% | 1009.4 hPa | 0 mm | - | - | - |
| 1777941355 | 15° C | 75% | 1009.3 hPa | 0 mm | - | - | - |
| 1777940741 | 15° C | 75% | 1009 hPa | 0 mm | - | - | - |
| 1777940132 | 15° C | 73% | 1009 hPa | 0 mm | - | - | - |
| 1777939529 | 15° C | 72% | 1008.9 hPa | 0 mm | - | - | - |
| 1777938919 | 15° C | 71% | 1009 hPa | 0 mm | - | - | - |
| 1777938311 | 15.56° C | 70% | 1009.1 hPa | 0 mm | - | - | - |
| 1777937703 | 15.56° C | 68% | 1009.2 hPa | 0 mm | - | - | - |
| 1777937096 | 15.56° C | 66% | 1009 hPa | 0 mm | - | - | - |
| 1777936490 | 16.11° C | 64% | 1009 hPa | 0 mm | - | - | - |
| 1777935884 | 16.67° C | 63% | 1008.9 hPa | 0 mm | - | - | - |
| 1777935279 | 16.67° C | 61% | 1009.1 hPa | 0 mm | - | - | - |
| 1777934671 | 16.67° C | 60% | 1008.6 hPa | 0 mm | - | - | - |
| 1777934066 | 17.22° C | 58% | 1008.7 hPa | 0 mm | - | - | - |
| 1777933461 | 17.22° C | 58% | 1008.8 hPa | 0 mm | - | - | - |
| 1777932853 | 17.78° C | 57% | 1008.7 hPa | 0 mm | - | - | - |
| 1777932247 | 17.78° C | 55% | 1008.7 hPa | 0 mm | - | - | - |
| 1777931640 | 18.33° C | 54% | 1008.7 hPa | 0 mm | - | - | - |
| 1777931035 | 18.33° C | 53% | 1008.5 hPa | 0 mm | - | - | - |
| 1777930428 | 19.44° C | 51% | 1008.6 hPa | 0 mm | - | - | - |
| 1777929822 | 20° C | 48% | 1008.4 hPa | 0 mm | - | - | - |
* Rain latest hour (hover to see other rain measurements)
** Current wind speed in m/s (hover to see current wind gust speed)